This is the latest recevied weather packets stored in our database for station/object K7ZQU-7. If no packets are shown the sender has not sent any weather packets the latest 10 day(s).
| Time | Temp. | Humidity | Pressure | Rain* | Wind** | Luminosity | Snow |
|---|---|---|---|---|---|---|---|
| 1777761218 | 18.33° C | 35% | 1014 hPa | 0 mm | 1.34 m/s, 82° | - | - |
| 1777760617 | 17.78° C | 35% | 1014.1 hPa | 0 mm | 1.34 m/s, 121° | - | - |
| 1777760020 | 17.78° C | 34% | 1014.1 hPa | 0 mm | 2.24 m/s, 319° | - | - |
| 1777759721 | 17.78° C | 35% | 1014.3 hPa | 0 mm | 1.79 m/s, 90° | - | - |
| 1777759419 | 18.33° C | 35% | 1014.3 hPa | 0 mm | 0.45 m/s, 83° | - | - |
| 1777759120 | 18.33° C | 36% | 1014.3 hPa | 0 mm | 0.45 m/s, 15° | - | - |
| 1777758821 | 18.33° C | 36% | 1014.3 hPa | 0 mm | 1.34 m/s, 222° | - | - |
| 1777758223 | 18.33° C | 37% | 1014.4 hPa | 0 mm | 0.89 m/s, 44° | - | - |
| 1777757921 | 18.33° C | 35% | 1014.4 hPa | 0 mm | 1.34 m/s, 97° | - | - |
| 1777757323 | 17.78° C | 37% | 1014.3 hPa | 0 mm | 2.68 m/s, 53° | - | - |
| 1777757025 | 17.78° C | 38% | 1014.4 hPa | 0 mm | 1.34 m/s, 20° | - | - |
| 1777756726 | 17.22° C | 38% | 1014.5 hPa | 0 mm | 1.79 m/s, 132° | - | - |
| 1777756424 | 17.78° C | 37% | 1014.4 hPa | 0 mm | 2.24 m/s, 48° | - | - |
| 1777756125 | 17.78° C | 37% | 1014.5 hPa | 0 mm | 1.79 m/s, 38° | - | - |
| 1777755826 | 17.22° C | 39% | 1014.5 hPa | 0 mm | 1.79 m/s, 42° | - | - |
| 1777755527 | 16.67° C | 41% | 1014.6 hPa | 0 mm | 0.89 m/s, 131° | - | - |
| 1777754927 | 17.22° C | 39% | 1014.6 hPa | 0 mm | 1.79 m/s, 172° | - | - |
| 1777754628 | 17.22° C | 39% | 1014.5 hPa | 0 mm | 1.34 m/s, 190° | - | - |
| 1777754343 | 17.22° C | 40% | 1014.5 hPa | 0 mm | 1.79 m/s, 181° | - | - |
| 1777754030 | 17.22° C | 41% | 1014.5 hPa | 0 mm | 1.34 m/s, 49° | - | - |
| 1777753731 | 17.22° C | 42% | 1014.5 hPa | 0 mm | 2.24 m/s, 87° | - | - |
| 1777753429 | 17.22° C | 42% | 1014.5 hPa | 0 mm | 1.79 m/s, 242° | - | - |
| 1777753130 | 17.22° C | 42% | 1014.6 hPa | 0 mm | 0.89 m/s, 141° | - | - |
| 1777752831 | 17.22° C | 43% | 1014.5 hPa | 0 mm | 1.79 m/s, 117° | - | - |
| 1777752532 | 17.22° C | 45% | 1014.6 hPa | 0 mm | 0.89 m/s, 212° | - | - |
* Rain latest hour (hover to see other rain measurements)
** Current wind speed in m/s (hover to see current wind gust speed)